TimeMDT,TemperatureF,Dew PointF,Humidity,Sea Level PressureIn,VisibilityMPH,Wind Direction,Wind SpeedMPH,Gust SpeedMPH,PrecipitationIn,Events,Conditions,WindDirDegrees,DateUTC
12:53 AM,61.0,51.1,70,29.90,10.0,Calm,Calm,-,N/A,,Clear,0,2013-07-15 06:53:00
1:53 AM,55.9,50.0,80,29.90,10.0,Calm,Calm,-,N/A,,Clear,0,2013-07-15 07:53:00
2:53 AM,55.9,51.1,84,29.89,10.0,Calm,Calm,-,N/A,,Clear,0,2013-07-15 08:53:00
3:53 AM,55.9,51.1,84,29.88,10.0,Calm,Calm,-,N/A,,Clear,0,2013-07-15 09:53:00
4:53 AM,57.9,53.1,84,29.88,10.0,Calm,Calm,-,N/A,,Clear,0,2013-07-15 10:53:00
5:53 AM,55.9,50.0,80,29.88,10.0,Calm,Calm,-,N/A,,Clear,0,2013-07-15 11:53:00
6:53 AM,55.0,50.0,83,29.88,10.0,SE,4.6,-,N/A,,Clear,140,2013-07-15 12:53:00
7:53 AM,59.0,51.1,75,29.90,10.0,WSW,4.6,-,N/A,,Clear,240,2013-07-15 13:53:00
8:53 AM,63.0,55.0,75,29.89,10.0,Calm,Calm,-,N/A,,Clear,0,2013-07-15 14:53:00
9:53 AM,71.1,50.0,47,29.87,10.0,NE,5.8,-,0.00,,Clear,40,2013-07-15 15:53:00
10:53 AM,77.0,53.1,43,29.86,10.0,ENE,5.8,-,N/A,,Clear,70,2013-07-15 16:53:00
11:53 AM,84.9,55.0,36,29.84,10.0,North,4.6,-,N/A,,Clear,350,2013-07-15 17:53:00
12:53 PM,86.0,54.0,33,29.83,10.0,North,6.9,-,N/A,,Partly Cloudy,10,2013-07-15 18:53:00
1:53 PM,84.9,59.0,41,29.82,10.0,Calm,Calm,-,N/A,,Clear,0,2013-07-15 19:53:00
2:19 PM,84.2,62.6,48,29.97,10.0,South,10.4,18.4,N/A,Thunderstorm,Clear,180,2013-07-15 20:19:00
2:40 PM,80.6,51.8,37,29.98,10.0,SSE,16.1,23.0,N/A,Thunderstorm,Clear,160,2013-07-15 20:40:00
2:51 PM,80.6,51.8,37,29.97,10.0,SSE,19.6,26.5,N/A,,Clear,150,2013-07-15 20:51:00
2:53 PM,81.0,51.1,35,29.85,10.0,SE,20.7,27.6,N/A,,Clear,140,2013-07-15 20:53:00
3:53 PM,91.0,45.0,20,29.77,10.0,SE,5.8,-,N/A,,Clear,130,2013-07-15 21:53:00
4:53 PM,89.1,51.1,27,29.76,10.0,East,13.8,20.7,N/A,,Clear,80,2013-07-15 22:53:00
5:53 PM,88.0,52.0,29,29.77,10.0,East,12.7,-,N/A,,Clear,90,2013-07-15 23:53:00
6:53 PM,84.0,54.0,35,29.76,10.0,East,8.1,-,N/A,,Clear,80,2013-07-16 00:53:00
7:53 PM,82.9,52.0,34,29.75,10.0,SE,4.6,-,N/A,,Clear,140,2013-07-16 01:53:00
8:53 PM,75.0,54.0,48,29.75,10.0,Calm,Calm,-,N/A,,Clear,0,2013-07-16 02:53:00
9:53 PM,66.9,57.0,70,29.78,10.0,Calm,Calm,-,N/A,,Clear,0,2013-07-16 03:53:00
10:53 PM,66.9,57.0,70,29.77,10.0,SW,3.5,-,N/A,,Clear,220,2013-07-16 04:53:00
11:53 PM,68.0,55.9,65,29.75,10.0,SSE,3.5,-,N/A,,Clear,160,2013-07-16 05:53:00